[[{"header":{"parameterUnit":"m.s-1","parameterCategory":1,"la1":30.2991,"la2":30.254,"lo1":-89.0895,"lo2":-89.0444,"dy":0.0017,"dx":0.0017,"nx":28,"ny":28,"refTime":"2024-07-11T21:00:00:Z","depth":0,"parameterNumber":2,"parameterNumberName":"U-component_of_WINDS"},"data":[0,0,0,0,0,0,0,0,0,0,0,0,0,0,0,0,0,0,0,0,0,0,0,0,0,0,0,0,0,0,0,0,0,0,0,0,0,0,0,0,0,0,0,0,0,0,0,0,0,0,0,0,0,0,0,0,0,0,2.6542,2.6542,0,2.6586,2.6586,2.6587,2.6519,2.6517,2.6514,2.6512,2.6557,2.656,2.6563,0,0,0,0,0,0,0,0,0,0,0,0,0,2.6399,2.6402,2.6542,2.6542,2.6543,2.6586,2.6586,2.6587,2.6519,2.6517,2.6514,2.6511,2.6555,2.6559,2.6563,0,0,0,0,0,0,0,0,0,0,0,0,0,2.6454,2.6403,2.6542,2.6515,2.6513,2.6585,2.6586,2.6587,2.652,2.6516,2.6513,2.651,2.6554,2.6559,2.6564,2.6666,0,0,2.6579,2.6582,0,0,0,0,0,0,0,0,2.6451,2.6459,2.6518,2.6517,2.6514,2.6543,2.6552,2.6613,2.6521,2.6517,2.6512,2.6508,2.6555,2.656,2.6576,2.6668,2.6669,2.658,2.6583,2.6585,2.6586,0,0,0,0,0,0,0,2.6447,2.6457,2.6559,2.6519,2.6517,2.65,2.6504,2.6563,2.6555,2.6517,2.6512,2.6519,2.6553,2.6571,2.6576,2.667,2.658,2.6584,2.6587,2.6589,2.6845,2.6849,0,0,0,0,0,0,2.6446,2.6454,2.6558,2.656,2.6473,2.6505,2.6509,2.6538,2.6554,2.6554,2.6522,2.6515,2.6564,2.657,2.6577,2.6695,2.6585,2.659,2.6593,2.6842,2.6846,2.685,0,0,0,0,0,0,2.6444,2.6456,2.6556,2.6506,2.6517,2.6511,2.6543,2.654,2.6558,2.6558,2.6556,2.6541,2.6561,2.657,2.6644,2.6696,2.6592,2.6597,2.6837,2.6843,2.6848,2.6933,0,0,0,0,0,0,2.644,2.6456,2.6495,2.6507,2.652,2.6622,2.6547,2.6544,2.6567,2.6559,2.6575,2.6575,2.6559,2.6636,2.6649,2.6701,2.6601,2.6832,2.684,2.6846,2.6925,2.6941,2.6954,0,0,0,0,0,2.6435,2.6517,2.6497,2.651,2.6569,2.6625,2.6632,2.6613,2.6571,2.661,2.6609,2.6574,2.6689,2.6645,2.6658,2.6712,2.6829,2.6838,2.6846,2.6919,2.6938,2.6954,0,0,0,0,0,0,2.6511,2.6518,2.6496,2.6585,2.6605,2.6614,2.6661,2.6634,2.6666,2.6658,2.6632,2.6637,2.6715,2.6721,2.6672,2.681,2.6752,2.6763,2.6803,2.6821,2.6835,2.683,2.6605,0,0,0,0,0,2.6538,2.6583,2.6588,2.6666,2.6677,2.6668,2.6692,2.6675,2.6695,2.6703,2.6708,2.6728,2.6768,2.6795,2.6833,2.6927,2.6928,2.6971,2.6985,2.6997,2.7006,2.7055,2.7073,2.6878,2.6878,2.6878,0,0,2.6594,2.6604,2.6634,2.6681,2.6694,2.6741,2.6675,2.6728,2.6762,2.6711,2.6779,2.6784,2.6805,2.6889,2.6926,2.6896,2.7061,2.7008,2.7017,2.702,2.7065,2.7084,2.71,2.6884,2.6883,2.6882,0,0,2.672,2.6733,2.6798,2.6813,2.6834,2.6828,2.6844,2.6857,2.6858,2.6926,2.6888,2.6929,2.6999,2.7015,2.7032,2.7164,2.7132,2.7177,2.725,2.7298,2.7313,2.7326,2.7371,2.7387,2.7187,2.7187,2.7187,0,2.6787,2.6856,2.6835,2.689,2.6911,2.6867,2.6932,2.6948,2.698,2.6995,2.6962,2.7049,2.706,2.7145,2.7177,2.7194,2.721,2.7173,2.7313,2.7326,2.7338,2.738,2.7397,2.7192,2.7191,2.7191,2.719,0,2.6936,2.6985,2.7035,2.7067,2.7094,2.7154,2.7141,2.7171,2.7152,2.7149,2.7219,2.7231,2.7269,2.7288,2.7271,2.7371,2.7352,2.7317,2.7257,2.7362,2.7401,2.7417,2.7199,2.7198,2.7196,2.7195,0,0,2.7109,2.7129,2.7147,2.716,2.7181,2.7218,2.7276,2.7312,2.7337,2.7362,2.7408,2.7469,2.7435,2.7455,2.7439,2.7481,2.7582,2.744,2.744,2.7464,2.769,2.7715,2.7734,2.7562,2.7565,2.7567,2.7687,0,2.7232,2.7332,2.7314,2.741,2.7454,2.7413,2.7463,2.748,2.7479,2.7515,2.7514,2.7556,2.751,2.7522,2.7562,2.7561,2.7626,2.7552,2.7603,2.7605,2.7596,2.7755,2.7781,2.7894,2.7703,2.7705,2.7707,0,2.7389,2.7418,2.7519,2.753,2.7548,2.7593,2.7625,2.7661,2.768,2.7676,2.7698,2.7674,2.773,2.7672,2.7748,2.7698,2.7718,2.7721,2.7725,2.7727,2.7661,2.7758,2.793,2.7946,2.7732,2.773,2.7728,0,2.7502,2.7567,2.7634,2.7647,2.7664,2.7696,2.7705,2.772,2.7743,2.7771,2.7785,2.782,2.7838,2.7865,2.7851,2.781,2.7929,2.787,2.7926,2.7926,2.7951,2.7949,2.8125,2.7968,2.7968,2.7968,2.7967,0,2.764,2.7702,2.7685,2.7726,2.7795,2.7774,2.7842,2.7846,2.786,2.79,2.7868,2.7907,2.7887,2.7924,2.7914,2.7977,2.7987,2.7984,2.798,2.7985,2.7985,2.7996,2.7987,2.7972,2.7971,2.797,2.797,0,2.7776,2.7768,2.7838,2.7848,2.7852,2.7902,2.791,2.7948,2.7944,2.7996,2.8007,2.8002,2.8044,2.8033,2.8079,2.8072,2.8151,2.8139,2.8144,2.814,2.8196,2.819,2.8383,2.8407,2.8237,2.8239,2.824,0,2.7863,2.791,2.7925,2.7949,2.796,2.8001,2.8024,2.8006,2.8031,2.8056,2.8091,2.813,2.816,2.8229,2.8228,2.8263,2.825,2.8315,2.8254,2.8258,2.8247,2.8243,2.8247,2.8326,2.8328,2.833,2.8331,0,2.8017,2.8011,2.8045,2.8078,2.8107,2.8132,2.8154,2.8176,2.816,2.819,2.8232,2.8256,2.8302,2.8341,2.8373,2.838,2.8353,2.8351,2.8365,2.8369,2.837,2.8368,2.8174,2.8345,2.8344,2.8343,2.8342,2.8342,2.813,2.8169,2.8185,2.8224,2.8239,2.826,2.8296,2.8297,2.8332,2.8368,2.8356,2.8404,2.842,2.846,2.8472,2.8509,2.8484,2.8505,2.851,2.8515,2.852,2.8366,2.8515,2.8514,2.8514,2.8514,2.8513,0,2.828,2.8288,2.8325,2.8356,2.8387,2.8359,2.8382,2.8409,2.8452,2.847,2.85,2.8548,2.8585,2.8588,2.8623,2.8652,2.864,2.8661,2.8657,2.8659,2.8542,2.8525,2.867,2.867,2.867,2.867,2.867,2.867,2.8362,2.8425,2.8421,2.8491,2.8499,2.8545,2.856,2.8579,2.8593,2.8648,2.8679,2.8681,2.8692,2.8727,2.876,2.876,2.8773,2.8799,2.8794,2.8684,2.8668,2.8653,2.8636,2.8803,2.8803,2.8907,2.8908,2.8909]},{"header":{"parameterUnit":"m.s-1","parameterCategory":1,"la1":30.2991,"la2":30.254,"lo1":-89.0895,"lo2":-89.0444,"dy":0.0017,"dx":0.0017,"nx":28,"ny":28,"refTime":"2024-07-11T21:00:00:Z","depth":0,"parameterNumber":3,"parameterNumberName":"V-component_of_WINDS"},"data":[0,0,0,0,0,0,0,0,0,0,0,0,0,0,0,0,0,0,0,0,0,0,0,0,0,0,0,0,0,0,0,0,0,0,0,0,0,0,0,0,0,0,0,0,0,0,0,0,0,0,0,0,0,0,0,0,0,0,1.8882,1.8882,0,1.8898,1.8898,1.8898,1.8861,1.886,1.8859,1.8857,1.8875,1.8877,1.8878,0,0,0,0,0,0,0,0,0,0,0,0,0,1.882,1.8821,1.8882,1.8882,1.8882,1.8898,1.8898,1.8898,1.8861,1.886,1.8858,1.8857,1.8875,1.8877,1.8879,0,0,0,0,0,0,0,0,0,0,0,0,0,1.8843,1.8822,1.8882,1.8866,1.8864,1.8898,1.8898,1.8898,1.8861,1.886,1.8858,1.8856,1.8874,1.8876,1.8879,1.8929,0,0,1.8886,1.8887,0,0,0,0,0,0,0,0,1.8841,1.8845,1.8868,1.8867,1.8866,1.8876,1.8883,1.8909,1.8862,1.8863,1.8857,1.8855,1.8877,1.8879,1.8886,1.893,1.8931,1.8886,1.8888,1.8889,1.8889,0,0,0,0,0,0,0,1.884,1.8844,1.8888,1.8868,1.8867,1.8858,1.8859,1.8887,1.888,1.8862,1.886,1.8862,1.8876,1.8884,1.8886,1.8931,1.8886,1.8888,1.889,1.8891,1.9015,1.9016,0,0,0,0,0,0,1.884,1.8843,1.8888,1.8889,1.8849,1.886,1.8862,1.8874,1.8879,1.8878,1.8864,1.886,1.8881,1.8883,1.8887,1.8944,1.8889,1.8891,1.8892,1.9013,1.9015,1.9017,0,0,0,0,0,0,1.8839,1.8845,1.8887,1.8865,1.887,1.8863,1.8878,1.8875,1.8883,1.888,1.8879,1.8873,1.8879,1.8883,1.8918,1.8944,1.8892,1.8894,1.901,1.9013,1.9016,1.9061,0,0,0,0,0,0,1.8837,1.8844,1.8864,1.8866,1.8871,1.8919,1.8879,1.8877,1.8887,1.8883,1.8888,1.8888,1.8878,1.8915,1.892,1.8946,1.8896,1.9008,1.9012,1.9015,1.9057,1.9065,1.9071,0,0,0,0,0,1.8835,1.8877,1.8865,1.887,1.8895,1.892,1.8923,1.8911,1.8889,1.8908,1.8906,1.8887,1.894,1.8919,1.8925,1.8952,1.9006,1.9011,1.9015,1.9054,1.9063,1.9071,0,0,0,0,0,0,1.8879,1.8877,1.8864,1.8907,1.8914,1.8914,1.8938,1.8922,1.8936,1.8932,1.8916,1.8918,1.8955,1.8957,1.8933,1.9,1.897,1.8975,1.8997,1.9006,1.9013,1.9012,1.8898,0,0,0,0,0,1.8893,1.8914,1.8911,1.8949,1.8953,1.8945,1.8956,1.8945,1.8952,1.8955,1.8956,1.8964,1.8981,1.8994,1.9011,1.9057,1.9057,1.9078,1.9086,1.9092,1.9096,1.9119,1.9128,1.9031,1.9031,1.9031,0,0,1.8924,1.8925,1.8939,1.8958,1.8962,1.8983,1.8948,1.8972,1.8988,1.8959,1.8992,1.8992,1.9,1.904,1.9058,1.9042,1.9123,1.9097,1.9102,1.9103,1.9124,1.9133,1.9142,1.9034,1.9033,1.9033,0,0,1.899,1.8993,1.9024,1.9029,1.9035,1.9029,1.9036,1.9039,1.9037,1.9069,1.9048,1.9066,1.9098,1.9104,1.9111,1.9176,1.9159,1.9182,1.922,1.9242,1.925,1.9256,1.9278,1.9287,1.9187,1.9187,1.9187,0,1.9027,1.9058,1.9043,1.9068,1.9076,1.905,1.9081,1.9086,1.9098,1.9104,1.9087,1.9125,1.9129,1.9169,1.9184,1.9192,1.9199,1.9181,1.925,1.9256,1.9262,1.9283,1.9291,1.919,1.919,1.9189,1.9189,0,1.9102,1.9124,1.9148,1.9159,1.917,1.9198,1.9187,1.92,1.9188,1.9183,1.9215,1.9218,1.9234,1.9243,1.9232,1.9281,1.9271,1.9252,1.9222,1.9274,1.9294,1.9302,1.9194,1.9193,1.9192,1.9191,0,0,1.9198,1.9197,1.9206,1.921,1.9214,1.923,1.9256,1.9271,1.9281,1.929,1.9311,1.9338,1.9319,1.9328,1.9317,1.9337,1.9386,1.9315,1.9315,1.9327,1.9438,1.9452,1.9461,1.9375,1.9376,1.9378,1.9437,0,1.9261,1.9306,1.9292,1.9336,1.9355,1.9329,1.9352,1.9357,1.9353,1.9368,1.9364,1.9382,1.9357,1.9362,1.938,1.9376,1.9408,1.9372,1.9394,1.9395,1.9392,1.9471,1.9486,1.9542,1.9444,1.9446,1.9447,0,1.9342,1.9352,1.9398,1.9396,1.9404,1.9424,1.9435,1.945,1.9455,1.945,1.9458,1.9443,1.9468,1.9438,1.9471,1.9447,1.9455,1.9455,1.9456,1.9457,1.9424,1.9474,1.956,1.9568,1.9459,1.9458,1.9457,0,1.9405,1.943,1.946,1.9464,1.9464,1.9478,1.9479,1.9481,1.949,1.95,1.9505,1.9518,1.9525,1.9535,1.9524,1.9503,1.9558,1.9528,1.9555,1.9555,1.9568,1.9567,1.9656,1.9575,1.9574,1.9574,1.9574,0,1.9478,1.9506,1.9488,1.9507,1.9537,1.9521,1.9552,1.955,1.9552,1.9569,1.9548,1.9565,1.9549,1.9564,1.9556,1.9584,1.9588,1.9585,1.9582,1.9586,1.9586,1.9591,1.9586,1.9576,1.9576,1.9576,1.9575,0,1.9553,1.9542,1.9573,1.9569,1.9568,1.9591,1.9588,1.9605,1.9598,1.962,1.9625,1.9615,1.9632,1.9621,1.9639,1.9633,1.9669,1.9662,1.9667,1.9665,1.9692,1.969,1.9786,1.9798,1.971,1.9711,1.9712,0,1.96,1.9621,1.9618,1.9628,1.9629,1.9645,1.9653,1.9637,1.9647,1.9652,1.9668,1.9682,1.9693,1.972,1.9715,1.9728,1.9719,1.9752,1.9721,1.9724,1.9718,1.9717,1.9718,1.9759,1.976,1.9761,1.9761,0,1.9683,1.9676,1.9688,1.9697,1.9707,1.9714,1.972,1.9729,1.9713,1.9724,1.974,1.9748,1.9765,1.9779,1.9789,1.979,1.9773,1.9771,1.9778,1.9782,1.9784,1.9782,1.9683,1.9769,1.9768,1.9768,1.9767,1.9767,1.9745,1.9761,1.9761,1.9775,1.9777,1.9782,1.9797,1.9791,1.9804,1.9815,1.9805,1.9824,1.9826,1.9837,1.984,1.9854,1.9841,1.9851,1.9853,1.9856,1.9859,1.9782,1.9856,1.9856,1.9855,1.9855,1.9855,0,1.9826,1.9824,1.9836,1.9843,1.9854,1.9835,1.984,1.985,1.9866,1.9869,1.9879,1.9897,1.991,1.9905,1.9916,1.9929,1.9921,1.9932,1.9931,1.9931,1.9871,1.9863,1.9938,1.9938,1.9938,1.9938,1.9938,1.9938,1.9869,1.9895,1.9888,1.9915,1.9913,1.993,1.9934,1.9938,1.994,1.9959,1.997,1.9966,1.9965,1.9976,1.9987,1.9985,1.999,2.0004,1.9999,1.9943,1.9935,1.9927,1.992,2.0005,2.0005,2.0057,2.0058,2.0058]}]]